Location: Days
(41.3591°N, 106.7339°W)
Time: 18:48:18
(UTC+00:00)

RS-15 - Pass Details

Date: 02 July 2022
Orbit: 1881 x 2163 km, 64.8° (Epoch: 15 August)

Event Time Altitude Azimuth Distance (km) Brightness Sun altitude
Rises 07:42:25 0° 324° (NW) 5,697 11.1 -25.2°
Reaches altitude 10° 07:46:01 10° 320° (NW) 4,682 10.5 -25.1°
Maximum altitude 07:57:39 52° 250° (WSW) 2,503 8.3 -24.7°
Enters shadow 08:02:29 36° 198° (SSW) 2,970 8.4 -24.5°
